User: anonymous   Login
Location: *
(33.8649°S, 62.1526°E)
Time: 10:28:32
(UTC+00:00)
Language:

Cosmos 1733 - Orbit

View from above orbital plane
View from above orbital plane
View from above satellite
View from above satellite

Ground track
Ground track

The orbit data is extracted from the following two-line orbital elements,

1 16611U 86018A   21112.86004360  .00001278  00000-0  61537-4 0  9996
2 16611  82.4872  85.8132 0013249 136.2817 223.9468 15.17782142922108
Epoch (UTC): 22 April 2021 20:38:27
Eccentricity: 0.0013249
inclination: 82.4872°
perigee height: 503 km
apogee height: 521 km
right ascension of ascending node: 85.8132°
argument of perigee: 136.2817°
revolutions per day: 15.17782142
mean anomaly at epoch: 223.9468°
orbit number at epoch: 92210

The dashed part of the orbit path shows where the satellite is in the earth's shadow,  

DLR